User: anonymous   Login
Location: Unspecified
(0.0000°N, 0.0000°E)
Time: 23:23:24
(UTC+00:00)
Language:

HOTBIRD 13G - Orbit

View from above orbital plane
View from above orbital plane
View from above satellite
View from above satellite

Ground track
Ground track

The orbit is defined by the following mean orbital elements,

1 54225U          26144.80164373 +.00000000 +00000-0 +00000-0 0 00000
2 54225   0.0407 234.4848 0001975 307.8333   1.6674  1.00272308    00
Epoch (UTC): 24 May 2026 19:14:22
Eccentricity: 0.0001975
inclination: 0.0407°
perigee height: 35778 km
apogee height: 35795 km
right ascension of ascending node: 234.4848°
argument of perigee: 307.8333°
revolutions per day: 1.00272308
mean anomaly at epoch: 1.6674°

The dashed part of the orbit path shows where the satellite is in the earth's shadow,  

DLR